Regional Weather Roundup
Issued by NWS

Home | Current Version | Previous Version | Graphics & Text | Print | Product List | Glossary On
Versions: 1 2 3 4 5 6 7 8 9 10 11 12 13 14 15 16 17 18 19 20 21 22 23 24 25 26 27 28 29 30 31 32 33 34 35 36 37 38 39 40 41 42 43 44 45 46 47 48 49 50
000
ASUS45 KCYS 211010
RWRWY

WYOMING REGIONAL WEATHER ROUNDUP
NATIONAL WEATHER SERVICE CHEYENNE WY
400 AM MDT SUN SEP 21 2014

NOTE:  "FAIR" INDICATES FEW OR NO CLOUDS BELOW 12,000 FEET
WITH NO SIGNIFICANT WEATHER AND/OR OBSTRUCTIONS TO VISIBILITY.

WYZ001-211100-
YELLOWSTONE NATIONAL PARK

CITY           SKY/WX    TMP DP  RH WIND       PRES   REMARKS
LK YELLOWSTONE   N/A     34  32  92 NW3       30.43F
W YELLOWSTONE  NOT AVBL

$$
WYZ002>013-054>058-071-098>099-211100-
NORTHERN WYOMING

CITY           SKY/WX    TMP DP  RH WIND       PRES   REMARKS
JACKSON        PTCLDY    52  43  71 N12       30.33S
CODY             N/A    N/A N/A N/A MISG        N/A
GREYBULL       CLEAR     49  41  74 CALM      30.28S
WORLAND        CLEAR     46  41  82 SW3       30.29R
SHERIDAN       CLEAR     43  38  82 CALM      30.31R
BUFFALO        CLEAR     49  37  63 S7        30.35S
GILLETTE       CLEAR     38  35  89 CALM      30.34R
HULETT         FAIR      45  34  65 MISG      30.35
NEWCASTLE      FAIR      41  34  75 CALM      30.36

$$
WYZ014>020-022>026-101>103-211100-
CENTRAL WYOMING

CITY           SKY/WX    TMP DP  RH WIND       PRES   REMARKS
BIG PINEY      CLEAR     43  33  68 N8        30.38R
PINEDALE       MOSUNNY   37  34  87 W7        30.39R WCI  32
DUBOIS         FAIR      41  36  81 CALM      30.44R
LANDER         CLEAR     52  39  61 W8        30.34S
RIVERTON       CLEAR     53  36  52 NE9       30.35R
CASPER         CLEAR     41  32  70 NW6       30.36R
DOUGLAS        MOCLDY    46  36  68 SE3       30.37S

$$
WYZ021-027>030-104>119-211100-
SOUTHERN WYOMING

CITY           SKY/WX    TMP DP  RH WIND       PRES   REMARKS
EVANSTON       PTCLDY    54  35  48 E12       30.29F
KEMMERER       SUNNY    N/A N/A N/A N12       30.35S
FORT BRIDGER   FAIR      50  39  67 N7        30.34S
ROCK SPRINGS   CLEAR     50  37  61 NE8       30.33R
DIXON          FAIR      49  41  72 NE9       30.29S
RAWLINS        CLEAR     50  35  56 NE16      30.36R
SARATOGA       FAIR      45  39  81 CALM      30.36R
LARAMIE        CLEAR     47  36  65 SE8       30.42F
CHEYENNE       CLOUDY    56  38  50 S7        30.41S
TORRINGTON     CLOUDY    54  45  71 CALM      30.34R
PINE BLUFFS    CLOUDY    54  39  58 CALM      30.38R

$$


USA.gov is the U.S. government's official web portal to all federal, state and local government web resources and services.